Tracking 19574 objects as of 16-Feb-2019
HD Live streaming from Space Station
objects crossing your sky now

COSMOS 2523

Track COSMOS 2523 now!
10-day predictions


NORAD ID: 42986
Int'l Code: 2017-037E
Perigee: 559.6 km
Apogee: 672.0 km
Inclination: 97.8 °
Period: 96.9 minutes
Semi major axis: 6986 km
RCS: Unknown
Launch date: June 23, 2017
Source: Commonwealth of Independent States (former USSR) (CIS)
Launch site: PLESETSK MISSILE AND SPACE COMPLEX (PKMTR)
aabbcc
Your satellite tracking list
Your tracking list is empty




NASA's NSSDC Master Catalog

Two Line Element Set (TLE):
1 42986U 17037E   19046.90281434 +.00000136 +00000-0 +20703-4 0  9994
2 42986 097.8219 114.0355 0080406 103.6312 257.3836 14.86561583070389
Source of the keplerian elements: AFSPC